Tracking 19827 objects as of 22-Aug-2019
HD Live streaming from Space Station
objects crossing your sky now

SCOUT G-1 R/B

Track SCOUT G-1 R/B now!
10-day predictions


NORAD ID: 19072
Int'l Code: 1988-033C
Perigee: 1,020.2 km
Apogee: 1,308.9 km
Inclination: 90.4 °
Period: 108.5 minutes
Semi major axis: 7535 km
RCS: 0.767 m2 (medium)
Launch date: April 26, 1988
Source: United States (US)
Launch site: AIR FORCE WESTERN TEST RANGE (AFWTR)

Note: This is a ROCKET BODY
aabbcc
Your satellite tracking list
Your tracking list is empty




NASA's NSSDC Master Catalog

Two Line Element Set (TLE):
1 19072U 88033C   19233.91974201 +.00000019 +00000-0 +17903-4 0  9996
2 19072 090.3679 301.4875 0191565 120.1263 303.5481 13.27179709516489
Source of the keplerian elements: AFSPC